Location: Newark
(11.2914°S, 14.4718°E)
Time: 16:49:31
(UTC+00:00)

Vanguard 2 - Pass Details

Date: 18 September 2019
Orbit: 554 x 2937 km, 32.9° (Epoch: 22 October)

Event Time Altitude Azimuth Distance (km) Brightness Sun altitude
Rises 17:36:15 0° 235° (SW) 4,876 12.6 -10.1°
Reaches altitude 10° 17:39:45 10° 224° (SW) 4,229 12.0 -11.0°
Maximum altitude 17:50:06 30° 167° (SSE) 3,682 10.8 -13.5°
Enters shadow 18:02:25 13° 115° (ESE) 5,405 11.3 -16.6°
